Language: 


Des rapports , des résumés tant et plus, au choix de chacun....


Données statistiques de la station
Quotidien Rapport Avril 30, 2017 Unités:  Anglais    Métrique   les deux
« Précédent Jour
Suivant Jour »
Quotidien Hebdomadaire Mensuel Annuel Actuel
  Haut: Bas: Moyen:
Température: 71.2 °F 40.1 °F 57 °F
Pt de rosée: 44.6 °F 32 °F 37 °F
Humidité: 74 % 31 % 49 %
Vitesse du vent: 21.3 mph 0 mph 6.4 mph
Rafales: 25.9 mph - -
Vent:- - SE
Pression: 29.9 in 29.5 in -
Précipitation: 0 in    
Historical Graphs
 
 
Données statistiques pour Avril 30, 2017
Heure Température Point de rosée Pression Vent Vitesse du vent Refales Humidité Pluie (taux horaire)
00:00 48.9 °F 33.8 °F 29.9 in East 3.8 mph 8.5 mph 53 % 0 in
00:05 48.7 °F 33.8 °F 29.9 in East 5.8 mph 6.5 mph 54 % 0 in
00:10 48.4 °F 33.8 °F 29.9 in East 5.4 mph 6 mph 54 % 0 in
00:15 48.2 °F 33.8 °F 29.9 in East 4.7 mph 8.5 mph 55 % 0 in
00:20 48 °F 33.8 °F 29.9 in ENE 6.5 mph 8.5 mph 55 % 0 in
00:25 48 °F 33.8 °F 29.9 in East 4 mph 6.7 mph 55 % 0 in
00:30 47.7 °F 33.8 °F 29.9 in East 5.6 mph 6.7 mph 56 % 0 in
00:35 47.7 °F 33.8 °F 29.9 in East 5.8 mph 6.7 mph 56 % 0 in
00:40 47.5 °F 33.8 °F 29.9 in ESE 3.8 mph 7.4 mph 56 % 0 in
00:45 47.3 °F 33.8 °F 29.9 in East 5.6 mph 7.4 mph 57 % 0 in
00:50 47.1 °F 33.8 °F 29.9 in ENE 5.6 mph 6.5 mph 57 % 0 in
00:55 46.9 °F 33.8 °F 29.9 in ENE 4 mph 5.8 mph 58 % 0 in
01:00 46.8 °F 33.8 °F 29.9 in NE 4 mph 6.9 mph 58 % 0 in
01:05 46.6 °F 33.8 °F 29.9 in East 3.4 mph 6.9 mph 59 % 0 in
01:10 46.4 °F 33.8 °F 29.9 in East 4.3 mph 6.5 mph 59 % 0 in
01:15 46.4 °F 33.8 °F 29.9 in East 4 mph 7.2 mph 59 % 0 in
01:20 46.4 °F 33.8 °F 29.9 in East 4.3 mph 7.2 mph 60 % 0 in
01:25 46.2 °F 33.8 °F 29.9 in ENE 3.8 mph 7.2 mph 60 % 0 in
01:30 46.2 °F 33.8 °F 29.9 in East 5.6 mph 6 mph 60 % 0 in
01:35 46.2 °F 33.8 °F 29.9 in East 3.1 mph 7.2 mph 60 % 0 in
01:41 46.2 °F 33.8 °F 29.9 in East 7.8 mph 7.8 mph 61 % 0 in
01:46 46.2 °F 33.8 °F 29.9 in East 5.4 mph 7.8 mph 61 % 0 in
01:51 46.2 °F 33.8 °F 29.9 in ESE 4.9 mph 7.2 mph 61 % 0 in
01:56 46.2 °F 33.8 °F 29.8 in East 6.5 mph 7.4 mph 61 % 0 in
01:57 46.2 °F 33.8 °F 29.8 in East 5.6 mph 7.6 mph 61 % 0 in
02:02 46 °F 33.8 °F 29.8 in ESE 6.3 mph 7.6 mph 61 % 0 in
02:07 46.2 °F 33.8 °F 29.9 in East 3.8 mph 7.2 mph 61 % 0 in
02:12 46 °F 33.8 °F 29.9 in NE 5.6 mph 7.8 mph 61 % 0 in
02:17 46 °F 33.8 °F 29.9 in East 5.4 mph 7.8 mph 61 % 0 in
02:22 45.9 °F 33.8 °F 29.9 in ENE 4.9 mph 7.6 mph 61 % 0 in
02:27 45.7 °F 33.8 °F 29.9 in East 3.6 mph 7.2 mph 61 % 0 in
02:32 45.5 °F 33.8 °F 29.9 in ENE 3.1 mph 7.2 mph 61 % 0 in
02:37 45.3 °F 32 °F 29.9 in East 4 mph 6.5 mph 61 % 0 in
02:42 45.1 °F 32 °F 29.9 in East 3.6 mph 6 mph 61 % 0 in
02:47 44.8 °F 32 °F 29.9 in East 2.7 mph 4 mph 61 % 0 in
02:52 44.6 °F 32 °F 29.9 in ESE 4 mph 5.4 mph 61 % 0 in
02:57 44.4 °F 32 °F 29.9 in ENE 3.6 mph 5.4 mph 62 % 0 in
03:02 44.2 °F 32 °F 29.9 in East 3.6 mph 5.4 mph 62 % 0 in
03:07 43.9 °F 32 °F 29.9 in ENE 2.5 mph 5.4 mph 63 % 0 in
03:12 43.7 °F 32 °F 29.9 in ENE 3.8 mph 4 mph 63 % 0 in
03:17 43.3 °F 32 °F 29.9 in East 4 mph 4 mph 63 % 0 in
03:22 43.3 °F 32 °F 29.9 in NE 3.1 mph 4.7 mph 63 % 0 in
03:33 43 °F 32 °F 29.8 in ENE 3.8 mph 5.4 mph 65 % 0 in
03:37 43 °F 32 °F 29.8 in ENE 3.4 mph 4.9 mph 65 % 0 in
03:42 42.8 °F 32 °F 29.8 in ENE 3.4 mph 4.7 mph 65 % 0 in
03:47 42.8 °F 32 °F 29.8 in ENE 3.8 mph 4.9 mph 65 % 0 in
03:52 42.4 °F 32 °F 29.8 in ENE 4.3 mph 4.9 mph 66 % 0 in
03:58 42.3 °F 32 °F 29.8 in ENE 4.3 mph 5.4 mph 66 % 0 in
04:02 42.1 °F 32 °F 29.8 in NE 3.4 mph 5.4 mph 67 % 0 in
04:08 42.1 °F 32 °F 29.8 in NE 4.5 mph 5.4 mph 67 % 0 in
04:13 41.9 °F 33.8 °F 29.8 in NE 4.9 mph 5.6 mph 68 % 0 in
04:18 41.9 °F 33.8 °F 29.8 in NE 4.3 mph 5.8 mph 68 % 0 in
04:23 41.7 °F 32 °F 29.8 in NE 3.1 mph 5.8 mph 68 % 0 in
04:28 41.5 °F 32 °F 29.8 in ENE 4 mph 4.9 mph 68 % 0 in
04:33 41.7 °F 32 °F 29.8 in ENE 3.6 mph 5.6 mph 69 % 0 in
04:38 41.5 °F 33.8 °F 29.8 in NNE 4.3 mph 5.6 mph 70 % 0 in
04:43 41.5 °F 33.8 °F 29.8 in ENE 3.8 mph 4.7 mph 70 % 0 in
04:48 41.5 °F 33.8 °F 29.8 in NE 3.1 mph 4.7 mph 70 % 0 in
04:53 41.4 °F 32 °F 29.8 in NE 3.8 mph 4.7 mph 70 % 0 in
04:58 41.4 °F 32 °F 29.8 in East 4 mph 5.4 mph 70 % 0 in
05:03 41.4 °F 32 °F 29.8 in NE 3.8 mph 5.4 mph 70 % 0 in
05:08 41.4 °F 32 °F 29.8 in ENE 3.6 mph 6 mph 70 % 0 in
05:13 41.4 °F 32 °F 29.8 in NE 3.4 mph 6 mph 70 % 0 in
05:18 41.2 °F 32 °F 29.8 in NE 3.1 mph 4.9 mph 70 % 0 in
05:23 41.2 °F 32 °F 29.8 in NE 4 mph 4.9 mph 70 % 0 in
05:28 41 °F 32 °F 29.8 in ENE 3.1 mph 4.9 mph 70 % 0 in
05:33 41 °F 33.8 °F 29.8 in East 3.1 mph 4.9 mph 71 % 0 in
05:38 40.8 °F 32 °F 29.8 in ENE 3.8 mph 4.9 mph 71 % 0 in
05:43 40.6 °F 32 °F 29.8 in ENE 3.4 mph 4.3 mph 71 % 0 in
05:48 40.6 °F 32 °F 29.8 in NE 4.3 mph 5.6 mph 71 % 0 in
05:53 40.6 °F 32 °F 29.8 in ENE 3.1 mph 5.6 mph 72 % 0 in
05:58 40.3 °F 32 °F 29.8 in ENE 4 mph 4.3 mph 71 % 0 in
06:04 40.3 °F 32 °F 29.8 in NE 2.7 mph 4 mph 72 % 0 in
06:09 40.3 °F 32 °F 29.8 in NE 3.1 mph 4.5 mph 72 % 0 in
06:14 40.3 °F 32 °F 29.8 in ENE 2.7 mph 4.5 mph 72 % 0 in
06:19 40.1 °F 32 °F 29.8 in NE 2 mph 4.3 mph 72 % 0 in
06:24 40.1 °F 32 °F 29.8 in NE 3.6 mph 4 mph 72 % 0 in
06:29 40.1 °F 32 °F 29.8 in NE 4.3 mph 4.3 mph 72 % 0 in
06:34 40.1 °F 32 °F 29.8 in ENE 3.1 mph 4.3 mph 72 % 0 in
06:39 40.1 °F 32 °F 29.8 in ESE 2.5 mph 4.3 mph 73 % 0 in
06:44 40.3 °F 32 °F 29.8 in East 3.1 mph 4.3 mph 73 % 0 in
06:49 40.5 °F 32 °F 29.8 in ESE 2.7 mph 4.3 mph 73 % 0 in
06:54 40.6 °F 32 °F 29.8 in ENE 3.6 mph 5.8 mph 73 % 0 in
06:59 41.2 °F 33.8 °F 29.8 in East 2.7 mph 5.8 mph 74 % 0 in
07:04 41.7 °F 33.8 °F 29.8 in East 5.8 mph 6 mph 74 % 0 in
07:09 42.4 °F 35.6 °F 29.8 in East 2.9 mph 6 mph 74 % 0 in
07:14 43.2 °F 35.6 °F 29.8 in SE 2.9 mph 6 mph 73 % 0 in
07:19 43.9 °F 35.6 °F 29.8 in East 2.5 mph 5.6 mph 73 % 0 in
07:24 44.6 °F 37.4 °F 29.7 in ESE 5.4 mph 6.5 mph 72 % 0 in
07:29 45.1 °F 37.4 °F 29.7 in ESE 5.8 mph 7.6 mph 71 % 0 in
07:34 45.3 °F 35.6 °F 29.7 in ESE 4.9 mph 8.5 mph 69 % 0 in
07:39 46.2 °F 37.4 °F 29.7 in ESE 7.6 mph 8.5 mph 68 % 0 in
07:44 46.8 °F 37.4 °F 29.7 in ENE 5.4 mph 7.8 mph 67 % 0 in
07:49 47.3 °F 37.4 °F 29.7 in ESE 4.9 mph 8.5 mph 66 % 0 in
07:54 47.7 °F 37.4 °F 29.7 in NNE 4 mph 8.5 mph 64 % 0 in
07:59 48.6 °F 37.4 °F 29.7 in ESE 6.9 mph 9.8 mph 63 % 0 in
08:04 48.7 °F 37.4 °F 29.7 in East 6 mph 9.8 mph 62 % 0 in
08:09 49.6 °F 37.4 °F 29.8 in ENE 5.4 mph 8.9 mph 60 % 0 in
08:14 50.2 °F 37.4 °F 29.8 in ENE 6.5 mph 10.3 mph 59 % 0 in
08:19 50.5 °F 35.6 °F 29.8 in SE 7.6 mph 10.3 mph 57 % 0 in
08:25 50.5 °F 35.6 °F 29.7 in ESE 8.1 mph 10.1 mph 56 % 0 in
08:30 50.5 °F 35.6 °F 29.7 in ESE 3.6 mph 10.5 mph 55 % 0 in
08:35 50.9 °F 35.6 °F 29.7 in ESE 5.6 mph 13.2 mph 55 % 0 in
08:40 51.8 °F 35.6 °F 29.7 in ESE 7.6 mph 13.2 mph 54 % 0 in
08:45 52.5 °F 37.4 °F 29.7 in ESE 8.1 mph 12.5 mph 54 % 0 in
08:50 52.9 °F 37.4 °F 29.7 in ESE 8.5 mph 10.5 mph 53 % 0 in
08:55 53.8 °F 37.4 °F 29.7 in ESE 11 mph 11 mph 52 % 0 in
09:00 54.1 °F 37.4 °F 29.7 in ESE 9.8 mph 15.4 mph 51 % 0 in
09:05 54.5 °F 37.4 °F 29.7 in ENE 7.2 mph 15.4 mph 50 % 0 in
09:10 55.2 °F 37.4 °F 29.7 in SSE 6.3 mph 13 mph 50 % 0 in
09:15 55.6 °F 37.4 °F 29.7 in SE 12.5 mph 13 mph 49 % 0 in
09:20 55.8 °F 37.4 °F 29.7 in SE 6.3 mph 12.8 mph 48 % 0 in
09:25 56.3 °F 37.4 °F 29.7 in ESE 8.1 mph 12.8 mph 48 % 0 in
09:30 56.3 °F 37.4 °F 29.7 in ESE 16.8 mph 19.9 mph 47 % 0 in
09:35 56.8 °F 37.4 °F 29.7 in ENE 13 mph 19.9 mph 47 % 0 in
09:40 57.2 °F 37.4 °F 29.7 in SSE 12.1 mph 17.7 mph 47 % 0 in
09:45 57.6 °F 37.4 °F 29.7 in East 7.2 mph 17.7 mph 47 % 0 in
09:50 58.1 °F 39.2 °F 29.7 in ESE 11 mph 15.9 mph 47 % 0 in
09:55 58.5 °F 37.4 °F 29.7 in ENE 9.8 mph 13.4 mph 46 % 0 in
10:00 59.4 °F 39.2 °F 29.7 in East 10.3 mph 13.9 mph 46 % 0 in
10:05 59.7 °F 39.2 °F 29.7 in SE 7.8 mph 16.8 mph 45 % 0 in
10:10 60.3 °F 39.2 °F 29.6 in East 8.7 mph 16.8 mph 45 % 0 in
10:15 60.1 °F 39.2 °F 29.6 in SE 5.8 mph 12.5 mph 45 % 0 in
10:20 60.6 °F 39.2 °F 29.7 in SE 7.6 mph 11.2 mph 45 % 0 in
10:23 61.2 °F 39.2 °F 29.7 in SE 8.5 mph 17.9 mph 44 % 0 in
10:28 61 °F 39.2 °F 29.7 in SE 7.6 mph 17.9 mph 44 % 0 in
10:33 59.9 °F 39.2 °F 29.7 in East 7.4 mph 17 mph 44 % 0 in
10:38 59.9 °F 39.2 °F 29.7 in SE 15.2 mph 15.2 mph 44 % 0 in
10:43 61.2 °F 39.2 °F 29.7 in ESE 9.2 mph 15.2 mph 44 % 0 in
10:48 62.1 °F 39.2 °F 29.7 in SE 10.7 mph 15.4 mph 43 % 0 in
10:54 61.9 °F 39.2 °F 29.7 in SE 12.1 mph 17.7 mph 43 % 0 in
10:59 62.1 °F 39.2 °F 29.7 in SSE 7.6 mph 17.7 mph 42 % 0 in
11:04 61.9 °F 37.4 °F 29.7 in ESE 15.2 mph 15.4 mph 41 % 0 in
11:09 63 °F 39.2 °F 29.7 in SE 10.3 mph 17.2 mph 41 % 0 in
11:14 63.5 °F 39.2 °F 29.7 in SE 7.6 mph 17.2 mph 40 % 0 in
11:19 64.2 °F 39.2 °F 29.7 in SSE 9.8 mph 15.4 mph 40 % 0 in
11:24 64.6 °F 39.2 °F 29.6 in SSE 4.3 mph 17.2 mph 39 % 0 in
11:29 64.8 °F 39.2 °F 29.6 in SSE 11 mph 17.2 mph 39 % 0 in
11:34 63.5 °F 37.4 °F 29.6 in ESE 10.5 mph 15.4 mph 38 % 0 in
11:39 63.5 °F 37.4 °F 29.6 in SSE 10.5 mph 17.7 mph 38 % 0 in
11:44 64.4 °F 37.4 °F 29.6 in SSE 17.7 mph 23.7 mph 38 % 0 in
11:49 65.7 °F 39.2 °F 29.6 in SSE 10.3 mph 23.7 mph 38 % 0 in
11:54 66.2 °F 39.2 °F 29.6 in SE 12.3 mph 17.7 mph 38 % 0 in
11:59 66.4 °F 39.2 °F 29.6 in SSE 11 mph 17.7 mph 37 % 0 in
12:04 66.4 °F 39.2 °F 29.6 in South 11 mph 22.4 mph 36 % 0 in
12:09 66.2 °F 39.2 °F 29.6 in SSE 11.2 mph 22.4 mph 36 % 0 in
12:14 66.6 °F 39.2 °F 29.6 in SSE 5.8 mph 17.4 mph 36 % 0 in
12:19 67.5 °F 39.2 °F 29.6 in SE 11.2 mph 16.1 mph 36 % 0 in
12:24 67.3 °F 39.2 °F 29.6 in SE 12.5 mph 17.7 mph 36 % 0 in
12:29 67.1 °F 39.2 °F 29.6 in East 8.7 mph 17.7 mph 36 % 0 in
12:34 67.1 °F 39.2 °F 29.6 in SSE 11 mph 15.2 mph 35 % 0 in
12:39 67.6 °F 39.2 °F 29.6 in SE 6.5 mph 15.4 mph 36 % 0 in
12:44 68.2 °F 39.2 °F 29.6 in ESE 12.1 mph 15.4 mph 34 % 0 in
12:49 67.5 °F 37.4 °F 29.6 in South 6.5 mph 15.2 mph 34 % 0 in
12:54 67.5 °F 37.4 °F 29.6 in SSE 16.1 mph 19 mph 34 % 0 in
13:00 66.7 °F 37.4 °F 29.6 in SE 12.1 mph 19 mph 34 % 0 in
13:05 68 °F 39.2 °F 29.6 in SSE 4.9 mph 15.9 mph 34 % 0 in
13:10 68.5 °F 39.2 °F 29.6 in SSE 21.3 mph 23.5 mph 34 % 0 in
13:15 67.8 °F 39.2 °F 29.6 in SSE 12.5 mph 23.5 mph 34 % 0 in
13:20 67.3 °F 37.4 °F 29.6 in SSE 15.2 mph 21.9 mph 34 % 0 in
13:25 67.6 °F 37.4 °F 29.6 in SE 13 mph 21.9 mph 34 % 0 in
13:30 67.3 °F 37.4 °F 29.6 in SE 15.4 mph 21.5 mph 34 % 0 in
13:35 67.8 °F 39.2 °F 29.6 in SSE 7.2 mph 21.5 mph 34 % 0 in
13:40 67.3 °F 37.4 °F 29.6 in South 14.8 mph 17.2 mph 33 % 0 in
13:45 67.6 °F 37.4 °F 29.6 in South 10.7 mph 17.7 mph 33 % 0 in
13:50 67.6 °F 37.4 °F 29.6 in SE 14.5 mph 17.9 mph 33 % 0 in
13:55 66.9 °F 37.4 °F 29.6 in SSE 15.4 mph 17.4 mph 33 % 0 in
14:00 67.6 °F 37.4 °F 29.6 in SSE 8.7 mph 17.4 mph 33 % 0 in
14:05 68.7 °F 39.2 °F 29.6 in SSE 12.5 mph 15.4 mph 33 % 0 in
14:10 69.1 °F 39.2 °F 29.6 in SSE 12.3 mph 17.4 mph 33 % 0 in
14:15 68.7 °F 39.2 °F 29.6 in South 8.5 mph 19.7 mph 33 % 0 in
14:20 68.7 °F 39.2 °F 29.6 in SE 19 mph 21.9 mph 33 % 0 in
14:25 68.2 °F 37.4 °F 29.6 in SSE 10.5 mph 24.4 mph 32 % 0 in
14:30 68.2 °F 37.4 °F 29.6 in South 5.4 mph 24.4 mph 32 % 0 in
14:35 68.2 °F 37.4 °F 29.6 in SE 14.8 mph 23.7 mph 32 % 0 in
14:40 69.1 °F 37.4 °F 29.6 in SSE 12.5 mph 23.7 mph 32 % 0 in
14:45 68.4 °F 37.4 °F 29.6 in SE 8.5 mph 25.1 mph 32 % 0 in
14:50 68 °F 37.4 °F 29.6 in SSE 13.2 mph 25.9 mph 32 % 0 in
14:55 68.4 °F 37.4 °F 29.6 in South 10.1 mph 25.9 mph 32 % 0 in
15:00 68 °F 37.4 °F 29.6 in SSE 17 mph 19.9 mph 32 % 0 in
15:05 68 °F 37.4 °F 29.6 in SW 10.5 mph 24.4 mph 32 % 0 in
15:10 68 °F 37.4 °F 29.6 in SSE 8.7 mph 24.4 mph 32 % 0 in
15:15 68.4 °F 37.4 °F 29.6 in SSE 12.3 mph 22.8 mph 32 % 0 in
15:20 69.1 °F 37.4 °F 29.6 in SSW 5.4 mph 22.8 mph 32 % 0 in
15:25 69.4 °F 37.4 °F 29.6 in SSE 8.1 mph 17 mph 32 % 0 in
15:31 69.4 °F 37.4 °F 29.6 in SSE 10.7 mph 20.8 mph 32 % 0 in
15:36 69.1 °F 37.4 °F 29.5 in SSW 10.5 mph 20.8 mph 31 % 0 in
15:41 70.2 °F 39.2 °F 29.5 in SE 6.3 mph 15.2 mph 32 % 0 in
15:46 70.7 °F 39.2 °F 29.5 in SSE 7.2 mph 17.4 mph 32 % 0 in
15:51 71.2 °F 39.2 °F 29.6 in SSE 10.7 mph 17.4 mph 32 % 0 in
15:56 70.9 °F 39.2 °F 29.6 in SSW 12.8 mph 17.2 mph 32 % 0 in
16:01 70.2 °F 39.2 °F 29.6 in SE 13.9 mph 17.2 mph 32 % 0 in
16:06 70 °F 37.4 °F 29.6 in SSE 12.8 mph 15.9 mph 31 % 0 in
16:11 70 °F 39.2 °F 29.6 in SE 12.5 mph 15.4 mph 32 % 0 in
16:16 70.2 °F 39.2 °F 29.6 in South 9.6 mph 13 mph 32 % 0 in
16:21 70.3 °F 39.2 °F 29.6 in SSE 10.5 mph 14.1 mph 32 % 0 in
16:26 70 °F 37.4 °F 29.6 in SSE 6 mph 15.2 mph 31 % 0 in
16:31 70.3 °F 39.2 °F 29.6 in South 8.9 mph 15.2 mph 32 % 0 in
16:36 69.8 °F 37.4 °F 29.6 in SSE 4.3 mph 14.1 mph 31 % 0 in
16:41 69.4 °F 37.4 °F 29.6 in SSE 9.6 mph 12.1 mph 31 % 0 in
16:46 69.1 °F 37.4 °F 29.6 in SSE 6.3 mph 12.8 mph 32 % 0 in
16:51 68.9 °F 37.4 °F 29.5 in SSW 10.3 mph 12.8 mph 31 % 0 in
16:56 68.7 °F 37.4 °F 29.5 in South 6 mph 15.2 mph 31 % 0 in
17:01 68.5 °F 37.4 °F 29.5 in SSE 7.8 mph 19.2 mph 31 % 0 in
17:07 68.4 °F 37.4 °F 29.5 in South 6.5 mph 19.2 mph 31 % 0 in
17:12 68.4 °F 37.4 °F 29.5 in South 11 mph 14.8 mph 32 % 0 in
17:17 68.4 °F 37.4 °F 29.5 in South 9.6 mph 15.2 mph 31 % 0 in
17:22 68.5 °F 37.4 °F 29.5 in South 7.6 mph 15.2 mph 32 % 0 in
17:27 68.4 °F 37.4 °F 29.5 in South 6 mph 14.5 mph 32 % 0 in
17:32 68.4 °F 37.4 °F 29.5 in SSE 7.6 mph 14.5 mph 32 % 0 in
17:37 68.4 °F 37.4 °F 29.5 in South 3.4 mph 14.3 mph 32 % 0 in
17:42 68.4 °F 37.4 °F 29.5 in South 8.9 mph 8.9 mph 32 % 0 in
17:47 68.4 °F 37.4 °F 29.5 in South 7.2 mph 8.9 mph 32 % 0 in
17:52 68.2 °F 37.4 °F 29.5 in SE 10.7 mph 10.7 mph 32 % 0 in
17:57 68 °F 37.4 °F 29.5 in SE 5.8 mph 15.2 mph 33 % 0 in
17:58 68 °F 37.4 °F 29.5 in East 10.7 mph 15.2 mph 33 % 0 in
18:03 68.5 °F 39.2 °F 29.5 in SE 5.6 mph 15.2 mph 33 % 0 in
18:08 69.4 °F 39.2 °F 29.5 in SE 7.8 mph 10.7 mph 33 % 0 in
18:13 69.3 °F 39.2 °F 29.5 in South 5.4 mph 12.5 mph 33 % 0 in
18:18 68.7 °F 39.2 °F 29.5 in SSE 13.2 mph 13.2 mph 33 % 0 in
18:23 68.2 °F 37.4 °F 29.5 in SE 17.7 mph 20.1 mph 33 % 0 in
18:28 67.6 °F 37.4 °F 29.5 in South 2 mph 20.1 mph 33 % 0 in
18:33 67.5 °F 37.4 °F 29.5 in SSE 4.9 mph 12.1 mph 33 % 0 in
18:38 67.5 °F 37.4 °F 29.5 in SE 3.6 mph 10.1 mph 34 % 0 in
18:43 67.1 °F 37.4 °F 29.5 in SE 7.8 mph 8.5 mph 34 % 0 in
18:48 66.9 °F 37.4 °F 29.5 in SSE 10.3 mph 12.5 mph 34 % 0 in
18:53 66.7 °F 37.4 °F 29.5 in SSE 11 mph 12.5 mph 34 % 0 in
18:58 66.6 °F 37.4 °F 29.5 in SSE 6.5 mph 11 mph 34 % 0 in
19:03 66.4 °F 37.4 °F 29.5 in SE 6.3 mph 11.4 mph 34 % 0 in
19:08 66.2 °F 37.4 °F 29.5 in ESE 8.1 mph 13 mph 34 % 0 in
19:13 66.2 °F 37.4 °F 29.5 in ESE 6 mph 15.2 mph 34 % 0 in
19:18 66 °F 37.4 °F 29.5 in SSE 6.5 mph 15.2 mph 34 % 0 in
19:24 65.8 °F 37.4 °F 29.5 in ESE 11.9 mph 12.5 mph 35 % 0 in
19:29 65.7 °F 37.4 °F 29.5 in East 3.4 mph 12.5 mph 35 % 0 in
19:34 65.3 °F 37.4 °F 29.5 in SSE 1.6 mph 11.9 mph 35 % 0 in
19:39 65.1 °F 37.4 °F 29.5 in South 2.9 mph 10.1 mph 35 % 0 in
19:44 64.9 °F 37.4 °F 29.5 in SSE 7.4 mph 8.1 mph 35 % 0 in
19:49 64.9 °F 37.4 °F 29.5 in South 2.2 mph 7.8 mph 36 % 0 in
19:54 64.8 °F 37.4 °F 29.5 in Calm   7.4 mph 36 % 0 in
19:59 64.4 °F 37.4 °F 29.5 in SSW 2.9 mph 2.9 mph 36 % 0 in
20:04 64.2 °F 37.4 °F 29.5 in South 6.3 mph 6.3 mph 37 % 0 in
20:09 64.2 °F 37.4 °F 29.5 in SSW 5.6 mph 7.8 mph 38 % 0 in
20:14 63.9 °F 39.2 °F 29.5 in SW 6.3 mph 7.8 mph 39 % 0 in
20:19 63.5 °F 39.2 °F 29.5 in South 5.8 mph 6.5 mph 40 % 0 in
20:24 63.1 °F 39.2 °F 29.5 in SSW 3.6 mph 5.8 mph 41 % 0 in
20:29 62.8 °F 39.2 °F 29.5 in SSW 3.8 mph 5.8 mph 42 % 0 in
20:34 62.4 °F 41 °F 29.5 in Calm   6.5 mph 44 % 0 in
20:39 62.1 °F 41 °F 29.5 in South 5.4 mph 6.5 mph 45 % 0 in
20:44 62.1 °F 41 °F 29.5 in SSW 3.1 mph 10.5 mph 46 % 0 in
20:49 62.1 °F 41 °F 29.5 in Calm   10.5 mph 46 % 0 in
20:54 61.9 °F 41 °F 29.5 in SSW 2 mph 10.5 mph 46 % 0 in
20:59 61.7 °F 41 °F 29.5 in Calm   2.9 mph 46 % 0 in
21:04 61.5 °F 41 °F 29.5 in SSW 2.9 mph 4.9 mph 46 % 0 in
21:10 61.3 °F 41 °F 29.5 in Calm   4.9 mph 46 % 0 in
21:15 61.2 °F 41 °F 29.5 in South 1.6 mph 2.5 mph 47 % 0 in
21:20 61 °F 41 °F 29.5 in Calm   2.7 mph 47 % 0 in
21:25 60.6 °F 41 °F 29.5 in South 3.4 mph 3.4 mph 48 % 0 in
21:30 60.6 °F 41 °F 29.5 in SW 5.6 mph 5.6 mph 48 % 0 in
21:35 60.8 °F 41 °F 29.5 in South 0.9 mph 7.2 mph 48 % 0 in
21:40 60.6 °F 41 °F 29.5 in Calm   7.2 mph 48 % 0 in
21:45 60.4 °F 41 °F 29.5 in Calm   6 mph 49 % 0 in
21:50 60.3 °F 41 °F 29.5 in SSE 2.5 mph 4 mph 49 % 0 in
21:55 60.1 °F 41 °F 29.5 in Calm   4 mph 49 % 0 in
22:00 59.9 °F 41 °F 29.5 in Calm   3.1 mph 49 % 0 in
22:05 59.5 °F 41 °F 29.5 in Calm     50 % 0 in
22:10 59.2 °F 41 °F 29.5 in Calm     50 % 0 in
22:15 59.2 °F 41 °F 29.5 in Calm     51 % 0 in
22:20 58.8 °F 42.8 °F 29.5 in Calm     52 % 0 in
22:25 58.5 °F 41 °F 29.5 in Calm     52 % 0 in
22:30 58.3 °F 42.8 °F 29.5 in Calm   1.6 mph 53 % 0 in
22:35 57.9 °F 41 °F 29.5 in Calm   1.6 mph 53 % 0 in
22:40 57.9 °F 41 °F 29.5 in SSW 3.8 mph 5.6 mph 53 % 0 in
22:45 58.5 °F 42.8 °F 29.5 in South 5.4 mph 7.6 mph 54 % 0 in
22:50 59 °F 42.8 °F 29.5 in SSW 5.6 mph 8.5 mph 56 % 0 in
22:55 59 °F 42.8 °F 29.5 in SW 3.8 mph 8.5 mph 56 % 0 in
23:01 58.8 °F 44.6 °F 29.5 in SW 2 mph 8.7 mph 57 % 0 in
23:06 58.6 °F 42.8 °F 29.5 in SSW 4 mph 8.7 mph 57 % 0 in
23:11 58.5 °F 42.8 °F 29.5 in Calm   6.5 mph 57 % 0 in
23:16 58.3 °F 42.8 °F 29.5 in SW 3.6 mph 5.6 mph 57 % 0 in
23:21 58.1 °F 42.8 °F 29.5 in Calm   4.3 mph 57 % 0 in
23:26 57.9 °F 42.8 °F 29.5 in Calm   3.6 mph 57 % 0 in
23:31 57.7 °F 42.8 °F 29.5 in SSW 0.9 mph 4.3 mph 57 % 0 in
23:36 57.6 °F 44.6 °F 29.5 in SSW 3.6 mph 4.9 mph 59 % 0 in
23:41 57.4 °F 44.6 °F 29.5 in Calm   4.9 mph 60 % 0 in
23:46 57.4 °F 44.6 °F 29.5 in Calm   5.4 mph 61 % 0 in
23:51 57.2 °F 44.6 °F 29.5 in SSW 4.9 mph 6 mph 62 % 0 in
23:56 57.2 °F 44.6 °F 29.5 in SW 4.3 mph 8.1 mph 63 % 0 in
Le Gheer Warneton
Courtoisie de Weather Underground - 2.25 mb

Mise a jour : 18/12/2017 04:10:17
Généré par Cumulus 1.9.4 (1099)